Regional Weather Roundup
Issued by NWS

Home | Current Version | Previous Version | Graphics & Text | Print | Product List | Glossary On
Versions: 1 2 3 4 5 6 7 8 9 10 11 12 13 14 15 16 17 18 19 20 21 22 23 24 25 26 27 28 29 30 31 32 33 34 35 36 37 38 39 40 41 42 43 44 45 46 47 48 49 50
000
ASUS43 KLMK 012102
RWRKY
KENTUCKY REGIONAL WEATHER ROUNDUP
NATIONAL WEATHER SERVICE LOUISVILLE KY
500 PM EDT TUE SEP 01 2015

NOTE "FAIR" INDICATES FEW OR NO CLOUDS BELOW 12,000 FEET
WITH NO SIGNIFICANT WEATHER AND/OR OBSTRUCTIONS TO VISIBILITY.

KYZ001>023-026-027-061>063-070>075-012200-
WESTERN AND SOUTH CENTRAL KENTUCKY

CITY           SKY/WX    TMP DP  RH WIND       PRES   REMARKS
PADUCAH        MOSUNNY   89  65  44 SE3       30.06F HX  91
HENDERSON      MOSUNNY   88  66  48 SE3       30.06F HX  90
OWENSBORO      SUNNY     91  67  45 S5        30.08F HX  94
HOPKINSVILLE   PTSUNNY   89  65  44 CALM      30.08F HAZE    HX  91
BOWLING GREEN  SUNNY     89  61  38 CALM      30.09S
GLASGOW        PTSUNNY   89  62  41 E3        30.10S
$$

KYZ024-025-028>034-038-045-046-053-012200-
NORTH CENTRAL KENTUCKY

CITY           SKY/WX    TMP DP  RH WIND       PRES   REMARKS
LOUISVILLE/SDF MOSUNNY   89  64  43 VRB7      30.07F HX  90
LOUISVILLE/LOU SUNNY     90  63  40 SW5       30.09F HX  91
FORT KNOX      SUNNY     88  65  47 W6        30.08F
$$

KYZ035>037-039>044-047>052-055>060-089>105-012200-
NORTHEAST KENTUCKY

CITY           SKY/WX    TMP DP  RH WIND       PRES   REMARKS
LEXINGTON      MOSUNNY   89  64  43 N7        30.11F HX  90
COVINGTON      MOSUNNY   87  63  44 W8        30.10F
FRANKFORT      SUNNY     88  63  43 VRB5      30.09F
$$

KYZ054-064>069-076>088-106>120-012200-
SOUTHEAST KENTUCKY

CITY           SKY/WX    TMP DP  RH WIND       PRES   REMARKS
JACKSON        MOSUNNY   85  64  49 S3        30.13F
LONDON         MOSUNNY   86  61  42 NE6       30.12F
SOMERSET       NOT AVBL
MIDDLESBORO    PTSUNNY   86  67  54 NE5       30.11F
MONTICELLO     MOCLDY    89  68  49 NW5       30.14S HX  92
$$



USA.gov is the U.S. government's official web portal to all federal, state and local government web resources and services.